Time,TemperatureF,DewpointF,PressureIn,WindDirection,WindDirectionDegrees,WindSpeedMPH,WindSpeedGustMPH,Humidity,HourlyPrecipIn,Conditions,Clouds,dailyrainin,SoftwareType,DateUTC
2013-01-20 00:02:00,43.3,30.4,29.99,North,-999,-999.0,-999.0,36,0.00,,,0.00,meteohub,2013-01-20 08:02:00,
2013-01-20 00:07:00,43.2,30.2,29.99,North,-999,-999.0,-999.0,36,0.00,,,0.00,meteohub,2013-01-20 08:07:00,
2013-01-20 00:12:00,43.0,30.0,29.99,North,-999,-999.0,-999.0,36,0.00,,,0.00,meteohub,2013-01-20 08:12:00,
2013-01-20 00:17:00,43.0,30.0,29.99,North,-999,-999.0,-999.0,36,0.00,,,0.00,meteohub,2013-01-20 08:17:00,
2013-01-20 00:22:00,43.0,30.0,29.99,North,-999,-999.0,-999.0,36,0.00,,,0.00,meteohub,2013-01-20 08:22:00,
2013-01-20 00:27:00,43.0,30.0,29.99,North,-999,-999.0,-999.0,36,0.00,,,0.00,meteohub,2013-01-20 08:27:00,
2013-01-20 00:32:00,42.8,29.8,29.99,North,-999,-999.0,-999.0,36,0.00,,,0.00,meteohub,2013-01-20 08:32:00,
2013-01-20 00:37:00,42.8,29.8,29.99,North,-999,-999.0,-999.0,36,0.00,,,0.00,meteohub,2013-01-20 08:37:00,
2013-01-20 00:42:00,42.6,30.2,29.99,North,-999,-999.0,-999.0,36,0.00,,,0.00,meteohub,2013-01-20 08:42:00,
2013-01-20 00:47:00,42.6,30.2,29.99,North,-999,-999.0,-999.0,36,0.00,,,0.00,meteohub,2013-01-20 08:47:00,
2013-01-20 00:52:00,42.6,29.7,29.99,North,-999,-999.0,-999.0,36,0.00,,,0.00,meteohub,2013-01-20 08:52:00,
2013-01-20 00:58:00,42.4,29.5,29.99,North,-999,-999.0,-999.0,36,0.00,,,0.00,meteohub,2013-01-20 08:58:00,
2013-01-20 01:03:00,42.4,29.5,29.99,North,-999,-999.0,-999.0,36,0.00,,,0.00,meteohub,2013-01-20 09:03:00,
2013-01-20 01:08:00,42.3,29.3,29.99,North,-999,-999.0,-999.0,36,0.00,,,0.00,meteohub,2013-01-20 09:08:00,
2013-01-20 01:13:00,42.3,29.3,29.99,North,-999,-999.0,-999.0,36,0.00,,,0.00,meteohub,2013-01-20 09:13:00,
2013-01-20 01:18:00,42.3,29.3,29.99,North,-999,-999.0,-999.0,36,0.00,,,0.00,meteohub,2013-01-20 09:18:00,
2013-01-20 01:23:00,42.1,29.7,29.99,North,-999,-999.0,-999.0,36,0.00,,,0.00,meteohub,2013-01-20 09:23:00,
2013-01-20 01:28:00,42.1,29.7,29.99,North,-999,-999.0,-999.0,36,0.00,,,0.00,meteohub,2013-01-20 09:28:00,
2013-01-20 01:33:00,42.1,29.7,29.99,North,-999,-999.0,-999.0,36,0.00,,,0.00,meteohub,2013-01-20 09:33:00,
2013-01-20 01:38:00,41.9,29.5,29.99,North,-999,-999.0,-999.0,36,0.00,,,0.00,meteohub,2013-01-20 09:38:00,
2013-01-20 01:44:00,41.7,29.3,29.99,North,-999,-999.0,-999.0,36,0.00,,,0.00,meteohub,2013-01-20 09:44:00,
2013-01-20 01:49:00,41.7,29.3,29.99,North,-999,-999.0,-999.0,36,0.00,,,0.00,meteohub,2013-01-20 09:49:00,
2013-01-20 01:54:00,41.7,29.3,29.99,North,-999,-999.0,-999.0,36,0.00,,,0.00,meteohub,2013-01-20 09:54:00,
2013-01-20 01:59:00,41.5,29.1,29.99,North,-999,-999.0,-999.0,36,0.00,,,0.00,meteohub,2013-01-20 09:59:00,
2013-01-20 02:04:00,41.5,29.1,29.99,North,-999,-999.0,-999.0,36,0.00,,,0.00,meteohub,2013-01-20 10:04:00,
2013-01-20 02:09:00,41.4,28.9,29.99,North,-999,-999.0,-999.0,36,0.00,,,0.00,meteohub,2013-01-20 10:09:00,
2013-01-20 02:14:00,41.2,28.8,29.99,North,-999,-999.0,-999.0,36,0.00,,,0.00,meteohub,2013-01-20 10:14:00,
2013-01-20 02:19:00,41.0,28.9,29.99,North,-999,-999.0,-999.0,36,0.00,,,0.00,meteohub,2013-01-20 10:19:00,
2013-01-20 02:24:00,41.0,28.9,29.99,North,-999,-999.0,-999.0,36,0.00,,,0.00,meteohub,2013-01-20 10:24:00,
2013-01-20 02:29:00,40.8,29.1,29.99,North,-999,-999.0,-999.0,36,0.00,,,0.00,meteohub,2013-01-20 10:29:00,
2013-01-20 02:35:00,40.6,29.1,29.99,North,-999,-999.0,-999.0,36,0.00,,,0.00,meteohub,2013-01-20 10:35:00,
2013-01-20 02:40:00,40.5,29.3,29.99,North,-999,-999.0,-999.0,36,0.00,,,0.00,meteohub,2013-01-20 10:40:00,
2013-01-20 02:45:00,40.5,29.3,29.99,North,-999,-999.0,-999.0,36,0.00,,,0.00,meteohub,2013-01-20 10:45:00,
2013-01-20 02:50:00,40.5,29.3,29.99,North,-999,-999.0,-999.0,36,0.00,,,0.00,meteohub,2013-01-20 10:50:00,
2013-01-20 02:55:00,40.5,29.3,29.99,North,-999,-999.0,-999.0,36,0.00,,,0.00,meteohub,2013-01-20 10:55:00,
2013-01-20 03:00:00,40.5,29.3,29.99,North,-999,-999.0,-999.0,36,0.00,,,0.00,meteohub,2013-01-20 11:00:00,
2013-01-20 03:05:00,40.5,29.3,29.99,North,-999,-999.0,-999.0,36,0.00,,,0.00,meteohub,2013-01-20 11:05:00,
2013-01-20 03:10:00,40.3,29.1,29.99,North,-999,-999.0,-999.0,36,0.00,,,0.00,meteohub,2013-01-20 11:10:00,
2013-01-20 03:16:00,40.1,28.9,29.99,North,-999,-999.0,-999.0,36,0.00,,,0.00,meteohub,2013-01-20 11:16:00,
2013-01-20 03:21:00,40.1,28.9,29.99,North,-999,-999.0,-999.0,36,0.00,,,0.00,meteohub,2013-01-20 11:21:00,
2013-01-20 03:26:00,40.1,29.3,29.99,North,-999,-999.0,-999.0,36,0.00,,,0.00,meteohub,2013-01-20 11:26:00,
2013-01-20 03:31:00,39.9,29.1,29.99,North,-999,-999.0,-999.0,36,0.00,,,0.00,meteohub,2013-01-20 11:31:00,
2013-01-20 03:36:00,39.9,29.1,29.99,North,-999,-999.0,-999.0,36,0.00,,,0.00,meteohub,2013-01-20 11:36:00,
2013-01-20 03:41:00,39.9,29.1,29.99,North,-999,-999.0,-999.0,36,0.00,,,0.00,meteohub,2013-01-20 11:41:00,
2013-01-20 03:47:00,39.9,29.1,29.99,North,-999,-999.0,-999.0,36,0.00,,,0.00,meteohub,2013-01-20 11:47:00,
2013-01-20 03:52:00,39.7,28.9,29.99,North,-999,-999.0,-999.0,36,0.00,,,0.00,meteohub,2013-01-20 11:52:00,
2013-01-20 03:57:00,39.7,28.9,29.99,North,-999,-999.0,-999.0,36,0.00,,,0.00,meteohub,2013-01-20 11:57:00,
2013-01-20 04:02:00,39.7,28.9,29.99,North,-999,-999.0,-999.0,37,0.00,,,0.00,meteohub,2013-01-20 12:02:00,
2013-01-20 04:07:00,39.7,28.9,29.99,North,-999,-999.0,-999.0,37,0.00,,,0.00,meteohub,2013-01-20 12:07:00,
2013-01-20 04:12:00,39.6,28.8,29.99,North,-999,-999.0,-999.0,37,0.00,,,0.00,meteohub,2013-01-20 12:12:00,
2013-01-20 04:17:00,39.4,28.6,29.99,North,-999,-999.0,-999.0,37,0.00,,,0.00,meteohub,2013-01-20 12:17:00,
2013-01-20 04:22:00,39.4,28.9,29.99,North,-999,-999.0,-999.0,37,0.00,,,0.00,meteohub,2013-01-20 12:22:00,
2013-01-20 04:27:00,39.2,28.8,29.99,North,-999,-999.0,-999.0,37,0.00,,,0.00,meteohub,2013-01-20 12:27:00,
2013-01-20 04:32:00,39.2,28.8,29.99,North,-999,-999.0,-999.0,37,0.00,,,0.00,meteohub,2013-01-20 12:32:00,
2013-01-20 04:37:00,39.0,28.9,29.99,North,-999,-999.0,-999.0,37,0.00,,,0.00,meteohub,2013-01-20 12:37:00,
2013-01-20 04:42:00,39.0,28.9,29.99,North,-999,-999.0,-999.0,37,0.00,,,0.00,meteohub,2013-01-20 12:42:00,
2013-01-20 04:47:00,39.0,28.9,29.99,North,-999,-999.0,-999.0,37,0.00,,,0.00,meteohub,2013-01-20 12:47:00,
2013-01-20 04:52:00,39.0,28.9,29.99,North,-999,-999.0,-999.0,37,0.00,,,0.00,meteohub,2013-01-20 12:52:00,
2013-01-20 04:57:00,39.2,29.1,29.99,North,-999,-999.0,-999.0,37,0.00,,,0.00,meteohub,2013-01-20 12:57:00,
2013-01-20 05:02:00,39.4,28.9,29.99,North,-999,-999.0,-999.0,37,0.00,,,0.00,meteohub,2013-01-20 13:02:00,
2013-01-20 05:07:00,39.4,28.9,29.99,North,-999,-999.0,-999.0,37,0.00,,,0.00,meteohub,2013-01-20 13:07:00,
2013-01-20 05:12:00,39.4,28.6,29.99,North,-999,-999.0,-999.0,37,0.00,,,0.00,meteohub,2013-01-20 13:12:00,
2013-01-20 05:17:00,39.6,28.8,29.99,North,-999,-999.0,-999.0,37,0.00,,,0.00,meteohub,2013-01-20 13:17:00,
2013-01-20 05:22:00,39.6,28.8,29.99,North,-999,-999.0,-999.0,37,0.00,,,0.00,meteohub,2013-01-20 13:22:00,
2013-01-20 05:27:00,39.6,28.4,29.99,North,-999,-999.0,-999.0,37,0.00,,,0.00,meteohub,2013-01-20 13:27:00,
2013-01-20 05:32:00,39.6,28.4,29.99,North,-999,-999.0,-999.0,37,0.00,,,0.00,meteohub,2013-01-20 13:32:00,
2013-01-20 05:37:00,39.6,28.4,29.99,North,-999,-999.0,-999.0,37,0.00,,,0.00,meteohub,2013-01-20 13:37:00,
2013-01-20 05:42:00,39.4,28.2,29.99,North,-999,-999.0,-999.0,37,0.00,,,0.00,meteohub,2013-01-20 13:42:00,
2013-01-20 05:47:00,39.2,28.0,29.99,North,-999,-999.0,-999.0,37,0.00,,,0.00,meteohub,2013-01-20 13:47:00,
2013-01-20 05:52:00,39.2,28.4,29.99,North,-999,-999.0,-999.0,37,0.00,,,0.00,meteohub,2013-01-20 13:52:00,
2013-01-20 05:57:00,39.2,28.4,29.99,North,-999,-999.0,-999.0,37,0.00,,,0.00,meteohub,2013-01-20 13:57:00,
2013-01-20 06:02:00,39.0,28.2,29.99,North,-999,-999.0,-999.0,37,0.00,,,0.00,meteohub,2013-01-20 14:02:00,
2013-01-20 06:07:00,39.0,28.2,29.99,North,-999,-999.0,-999.0,37,0.00,,,0.00,meteohub,2013-01-20 14:07:00,
2013-01-20 06:12:00,38.8,28.0,29.99,North,-999,-999.0,-999.0,37,0.00,,,0.00,meteohub,2013-01-20 14:12:00,
2013-01-20 06:17:00,38.7,27.9,29.99,North,-999,-999.0,-999.0,37,0.00,,,0.00,meteohub,2013-01-20 14:17:00,
2013-01-20 06:23:00,38.5,27.7,29.99,North,-999,-999.0,-999.0,37,0.00,,,0.00,meteohub,2013-01-20 14:23:00,
2013-01-20 06:28:00,38.3,27.9,29.99,North,-999,-999.0,-999.0,37,0.00,,,0.00,meteohub,2013-01-20 14:28:00,
2013-01-20 06:33:00,38.1,27.9,29.99,North,-999,-999.0,-999.0,37,0.00,,,0.00,meteohub,2013-01-20 14:33:00,
2013-01-20 06:38:00,37.9,28.0,29.99,North,-999,-999.0,-999.0,37,0.00,,,0.00,meteohub,2013-01-20 14:38:00,
2013-01-20 06:43:00,37.9,28.0,29.99,North,-999,-999.0,-999.0,37,0.00,,,0.00,meteohub,2013-01-20 14:43:00,
2013-01-20 06:48:00,37.8,28.2,29.99,North,-999,-999.0,-999.0,37,0.00,,,0.00,meteohub,2013-01-20 14:48:00,
2013-01-20 06:53:00,37.6,28.0,29.99,North,-999,-999.0,-999.0,37,0.00,,,0.00,meteohub,2013-01-20 14:53:00,
2013-01-20 06:58:00,37.6,28.0,29.99,North,-999,-999.0,-999.0,37,0.00,,,0.00,meteohub,2013-01-20 14:58:00,
2013-01-20 07:04:00,37.4,27.9,29.99,North,-999,-999.0,-999.0,37,0.00,,,0.00,meteohub,2013-01-20 15:04:00,
2013-01-20 07:09:00,37.4,27.9,29.99,North,-999,-999.0,-999.0,37,0.00,,,0.00,meteohub,2013-01-20 15:09:00,
2013-01-20 07:14:00,37.2,28.0,29.99,North,-999,-999.0,-999.0,37,0.00,,,0.00,meteohub,2013-01-20 15:14:00,
2013-01-20 07:19:00,37.0,28.2,29.99,North,-999,-999.0,-999.0,37,0.00,,,0.00,meteohub,2013-01-20 15:19:00,
2013-01-20 07:24:00,37.0,28.6,29.99,North,-999,-999.0,-999.0,37,0.00,,,0.00,meteohub,2013-01-20 15:24:00,
2013-01-20 07:29:00,37.0,28.6,29.99,North,-999,-999.0,-999.0,37,0.00,,,0.00,meteohub,2013-01-20 15:29:00,
2013-01-20 07:34:00,37.0,28.6,29.99,North,-999,-999.0,-999.0,36,0.00,,,0.00,meteohub,2013-01-20 15:34:00,
2013-01-20 07:40:00,37.0,28.9,29.99,North,-999,-999.0,-999.0,36,0.00,,,0.00,meteohub,2013-01-20 15:40:00,
2013-01-20 07:45:00,37.0,28.9,29.99,North,-999,-999.0,-999.0,36,0.00,,,0.00,meteohub,2013-01-20 15:45:00,
2013-01-20 07:50:00,37.0,28.9,29.99,North,-999,-999.0,-999.0,36,0.00,,,0.00,meteohub,2013-01-20 15:50:00,
2013-01-20 07:55:00,37.0,28.9,29.99,North,-999,-999.0,-999.0,36,0.00,,,0.00,meteohub,2013-01-20 15:55:00,
2013-01-20 08:00:00,37.2,29.1,29.99,North,-999,-999.0,-999.0,36,0.00,,,0.00,meteohub,2013-01-20 16:00:00,
2013-01-20 08:05:00,37.4,29.5,29.99,North,-999,-999.0,-999.0,36,0.00,,,0.00,meteohub,2013-01-20 16:05:00,
2013-01-20 08:10:00,37.6,29.7,29.99,North,-999,-999.0,-999.0,36,0.00,,,0.00,meteohub,2013-01-20 16:10:00,
2013-01-20 08:15:00,37.6,29.7,29.99,North,-999,-999.0,-999.0,36,0.00,,,0.00,meteohub,2013-01-20 16:15:00,
2013-01-20 08:20:00,37.9,30.0,29.99,North,-999,-999.0,-999.0,36,0.00,,,0.00,meteohub,2013-01-20 16:20:00,
2013-01-20 08:25:00,38.1,30.2,29.99,North,-999,-999.0,-999.0,36,0.00,,,0.00,meteohub,2013-01-20 16:25:00,
2013-01-20 08:31:00,38.1,30.2,29.99,North,-999,-999.0,-999.0,36,0.00,,,0.00,meteohub,2013-01-20 16:31:00,
2013-01-20 08:36:00,38.5,30.6,29.99,North,-999,-999.0,-999.0,36,0.00,,,0.00,meteohub,2013-01-20 16:36:00,
2013-01-20 08:41:00,38.7,31.1,29.99,North,-999,-999.0,-999.0,36,0.00,,,0.00,meteohub,2013-01-20 16:41:00,
2013-01-20 08:46:00,39.0,31.5,29.99,North,-999,-999.0,-999.0,36,0.00,,,0.00,meteohub,2013-01-20 16:46:00,
2013-01-20 08:51:00,39.6,32.0,29.99,North,-999,-999.0,-999.0,36,0.00,,,0.00,meteohub,2013-01-20 16:51:00,
2013-01-20 08:56:00,40.1,32.5,29.99,North,-999,-999.0,-999.0,36,0.00,,,0.00,meteohub,2013-01-20 16:56:00,
2013-01-20 09:01:00,40.6,33.1,29.99,North,-999,-999.0,-999.0,36,0.00,,,0.00,meteohub,2013-01-20 17:01:00,
2013-01-20 09:06:00,41.4,33.6,29.99,North,-999,-999.0,-999.0,36,0.00,,,0.00,meteohub,2013-01-20 17:06:00,
2013-01-20 09:11:00,42.1,34.3,29.99,North,-999,-999.0,-999.0,36,0.00,,,0.00,meteohub,2013-01-20 17:11:00,
2013-01-20 09:16:00,42.6,34.9,29.99,North,-999,-999.0,-999.0,36,0.00,,,0.00,meteohub,2013-01-20 17:16:00,
2013-01-20 09:21:00,43.3,35.2,29.99,North,-999,-999.0,-999.0,36,0.00,,,0.00,meteohub,2013-01-20 17:21:00,
2013-01-20 09:27:00,43.9,35.8,30.01,North,-999,-999.0,-999.0,36,0.00,,,0.00,meteohub,2013-01-20 17:27:00,
2013-01-20 09:32:00,44.6,36.1,30.01,North,-999,-999.0,-999.0,36,0.00,,,0.00,meteohub,2013-01-20 17:32:00,
2013-01-20 09:37:00,45.1,36.7,30.01,North,-999,-999.0,-999.0,36,0.00,,,0.00,meteohub,2013-01-20 17:37:00,
2013-01-20 09:42:00,45.9,37.0,30.01,North,-999,-999.0,-999.0,36,0.00,,,0.00,meteohub,2013-01-20 17:42:00,
2013-01-20 09:47:00,46.2,36.7,30.01,North,-999,-999.0,-999.0,36,0.00,,,0.00,meteohub,2013-01-20 17:47:00,
2013-01-20 09:52:00,46.9,35.8,30.01,North,-999,-999.0,-999.0,36,0.00,,,0.00,meteohub,2013-01-20 17:52:00,
2013-01-20 09:57:00,47.3,33.6,30.01,North,-999,-999.0,-999.0,36,0.00,,,0.00,meteohub,2013-01-20 17:57:00,
2013-01-20 10:02:00,47.8,33.3,30.01,North,-999,-999.0,-999.0,36,0.00,,,0.00,meteohub,2013-01-20 18:02:00,
2013-01-20 10:07:00,48.2,33.3,30.01,North,-999,-999.0,-999.0,36,0.00,,,0.00,meteohub,2013-01-20 18:07:00,
2013-01-20 10:12:00,48.7,32.9,30.01,North,-999,-999.0,-999.0,36,0.00,,,0.00,meteohub,2013-01-20 18:12:00,
2013-01-20 10:17:00,49.3,32.0,30.01,North,-999,-999.0,-999.0,36,0.00,,,0.00,meteohub,2013-01-20 18:17:00,
2013-01-20 10:22:00,50.0,31.6,30.01,North,-999,-999.0,-999.0,36,0.00,,,0.00,meteohub,2013-01-20 18:22:00,
2013-01-20 10:27:00,50.9,30.4,30.01,North,-999,-999.0,-999.0,36,0.00,,,0.00,meteohub,2013-01-20 18:27:00,
2013-01-20 10:32:00,51.4,30.2,30.01,North,-999,-999.0,-999.0,36,0.00,,,0.00,meteohub,2013-01-20 18:32:00,
2013-01-20 10:37:00,51.6,30.4,30.01,North,-999,-999.0,-999.0,36,0.00,,,0.00,meteohub,2013-01-20 18:37:00,
2013-01-20 10:42:00,52.2,29.8,29.99,North,-999,-999.0,-999.0,36,0.00,,,0.00,meteohub,2013-01-20 18:42:00,
2013-01-20 10:47:00,52.5,30.0,29.99,North,-999,-999.0,-999.0,36,0.00,,,0.00,meteohub,2013-01-20 18:47:00,
2013-01-20 10:52:00,53.1,29.3,29.99,North,-999,-999.0,-999.0,36,0.00,,,0.00,meteohub,2013-01-20 18:52:00,
2013-01-20 10:57:00,54.0,29.5,29.99,North,-999,-999.0,-999.0,36,0.00,,,0.00,meteohub,2013-01-20 18:57:00,
2013-01-20 11:02:00,54.5,30.0,29.99,North,-999,-999.0,-999.0,36,0.00,,,0.00,meteohub,2013-01-20 19:02:00,
2013-01-20 11:07:00,54.9,30.4,29.99,North,-999,-999.0,-999.0,36,0.00,,,0.00,meteohub,2013-01-20 19:07:00,
2013-01-20 11:12:00,55.0,30.6,29.99,North,-999,-999.0,-999.0,36,0.00,,,0.00,meteohub,2013-01-20 19:12:00,
2013-01-20 11:17:00,55.8,29.8,29.99,North,-999,-999.0,-999.0,36,0.00,,,0.00,meteohub,2013-01-20 19:17:00,
2013-01-20 11:22:00,56.5,29.8,29.99,North,-999,-999.0,-999.0,36,0.00,,,0.00,meteohub,2013-01-20 19:22:00,
2013-01-20 11:27:00,56.8,30.9,29.99,North,-999,-999.0,-999.0,36,0.00,,,0.00,meteohub,2013-01-20 19:27:00,
2013-01-20 11:32:00,57.0,30.4,29.99,North,-999,-999.0,-999.0,36,0.00,,,0.00,meteohub,2013-01-20 19:32:00,
2013-01-20 11:37:00,57.2,30.6,29.99,North,-999,-999.0,-999.0,36,0.00,,,0.00,meteohub,2013-01-20 19:37:00,
2013-01-20 11:42:00,57.4,30.6,29.96,North,-999,-999.0,-999.0,36,0.00,,,0.00,meteohub,2013-01-20 19:42:00,
2013-01-20 11:47:00,57.6,30.7,29.96,North,-999,-999.0,-999.0,36,0.00,,,0.00,meteohub,2013-01-20 19:47:00,
2013-01-20 11:52:00,57.9,30.4,29.96,North,-999,-999.0,-999.0,36,0.00,,,0.00,meteohub,2013-01-20 19:52:00,
2013-01-20 11:57:00,58.1,30.6,29.96,North,-999,-999.0,-999.0,36,0.00,,,0.00,meteohub,2013-01-20 19:57:00,
2013-01-20 12:02:00,58.3,30.7,29.96,North,-999,-999.0,-999.0,36,0.00,,,0.00,meteohub,2013-01-20 20:02:00,
2013-01-20 12:07:00,58.8,31.3,29.96,North,-999,-999.0,-999.0,36,0.00,,,0.00,meteohub,2013-01-20 20:07:00,
2013-01-20 12:12:00,59.0,30.7,29.96,North,-999,-999.0,-999.0,36,0.00,,,0.00,meteohub,2013-01-20 20:12:00,
2013-01-20 12:17:00,59.4,30.9,29.96,North,-999,-999.0,-999.0,36,0.00,,,0.00,meteohub,2013-01-20 20:17:00,
2013-01-20 12:22:00,59.5,31.1,29.96,North,-999,-999.0,-999.0,36,0.00,,,0.00,meteohub,2013-01-20 20:22:00,
2013-01-20 12:27:00,59.7,31.3,29.96,North,-999,-999.0,-999.0,36,0.00,,,0.00,meteohub,2013-01-20 20:27:00,
2013-01-20 12:32:00,59.9,31.5,29.96,North,-999,-999.0,-999.0,36,0.00,,,0.00,meteohub,2013-01-20 20:32:00,
2013-01-20 12:37:00,60.1,31.6,29.96,North,-999,-999.0,-999.0,36,0.00,,,0.00,meteohub,2013-01-20 20:37:00,
2013-01-20 12:42:00,60.3,31.8,29.93,North,-999,-999.0,-999.0,36,0.00,,,0.00,meteohub,2013-01-20 20:42:00,
2013-01-20 12:47:00,60.4,32.0,29.93,North,-999,-999.0,-999.0,36,0.00,,,0.00,meteohub,2013-01-20 20:47:00,
2013-01-20 12:52:00,60.6,32.2,29.93,North,-999,-999.0,-999.0,36,0.00,,,0.00,meteohub,2013-01-20 20:52:00,
2013-01-20 12:57:00,60.8,32.2,29.93,North,-999,-999.0,-999.0,36,0.00,,,0.00,meteohub,2013-01-20 20:57:00,
2013-01-20 13:02:00,61.0,32.4,29.93,North,-999,-999.0,-999.0,36,0.00,,,0.00,meteohub,2013-01-20 21:02:00,
2013-01-20 13:07:00,61.2,31.8,29.93,North,-999,-999.0,-999.0,36,0.00,,,0.00,meteohub,2013-01-20 21:07:00,
2013-01-20 13:12:00,61.3,31.3,29.93,North,-999,-999.0,-999.0,36,0.00,,,0.00,meteohub,2013-01-20 21:12:00,
2013-01-20 13:17:00,61.5,30.6,29.93,North,-999,-999.0,-999.0,36,0.00,,,0.00,meteohub,2013-01-20 21:17:00,
2013-01-20 13:22:00,61.7,31.5,29.93,North,-999,-999.0,-999.0,36,0.00,,,0.00,meteohub,2013-01-20 21:22:00,
2013-01-20 13:27:00,61.9,32.5,29.93,North,-999,-999.0,-999.0,36,0.00,,,0.00,meteohub,2013-01-20 21:27:00,
2013-01-20 13:32:00,62.1,31.8,29.93,North,-999,-999.0,-999.0,36,0.00,,,0.00,meteohub,2013-01-20 21:32:00,
2013-01-20 13:38:00,62.4,31.5,29.93,North,-999,-999.0,-999.0,36,0.00,,,0.00,meteohub,2013-01-20 21:38:00,
2013-01-20 13:43:00,62.6,31.5,29.93,North,-999,-999.0,-999.0,36,0.00,,,0.00,meteohub,2013-01-20 21:43:00,
2013-01-20 13:48:00,62.6,30.7,29.93,North,-999,-999.0,-999.0,36,0.00,,,0.00,meteohub,2013-01-20 21:48:00,
2013-01-20 13:53:00,62.6,30.7,29.93,North,-999,-999.0,-999.0,36,0.00,,,0.00,meteohub,2013-01-20 21:53:00,
2013-01-20 13:58:00,62.6,31.5,29.90,North,-999,-999.0,-999.0,36,0.00,,,0.00,meteohub,2013-01-20 21:58:00,
2013-01-20 14:03:00,63.0,31.1,29.90,North,-999,-999.0,-999.0,36,0.00,,,0.00,meteohub,2013-01-20 22:03:00,
2013-01-20 14:08:00,63.0,30.2,29.90,North,-999,-999.0,-999.0,36,0.00,,,0.00,meteohub,2013-01-20 22:08:00,
2013-01-20 14:14:00,63.0,30.2,29.90,North,-999,-999.0,-999.0,36,0.00,,,0.00,meteohub,2013-01-20 22:14:00,
2013-01-20 14:19:00,63.1,31.3,29.90,North,-999,-999.0,-999.0,36,0.00,,,0.00,meteohub,2013-01-20 22:19:00,
2013-01-20 14:24:00,63.3,30.6,29.90,North,-999,-999.0,-999.0,36,0.00,,,0.00,meteohub,2013-01-20 22:24:00,
2013-01-20 14:29:00,63.3,30.6,29.90,North,-999,-999.0,-999.0,36,0.00,,,0.00,meteohub,2013-01-20 22:29:00,
2013-01-20 14:35:00,63.5,30.7,29.90,North,-999,-999.0,-999.0,36,0.00,,,0.00,meteohub,2013-01-20 22:35:00,
2013-01-20 14:40:00,63.7,30.7,29.90,North,-999,-999.0,-999.0,36,0.00,,,0.00,meteohub,2013-01-20 22:40:00,
2013-01-20 14:45:00,63.7,30.0,29.90,North,-999,-999.0,-999.0,36,0.00,,,0.00,meteohub,2013-01-20 22:45:00,
2013-01-20 14:50:00,63.7,30.0,29.90,North,-999,-999.0,-999.0,36,0.00,,,0.00,meteohub,2013-01-20 22:50:00,
2013-01-20 14:55:00,63.7,30.0,29.90,North,-999,-999.0,-999.0,36,0.00,,,0.00,meteohub,2013-01-20 22:55:00,
2013-01-20 15:01:00,63.5,29.8,29.90,North,-999,-999.0,-999.0,36,0.00,,,0.00,meteohub,2013-01-20 23:01:00,
2013-01-20 15:06:00,63.5,29.8,29.90,North,-999,-999.0,-999.0,36,0.00,,,0.00,meteohub,2013-01-20 23:06:00,
2013-01-20 15:11:00,63.3,29.7,29.90,North,-999,-999.0,-999.0,36,0.00,,,0.00,meteohub,2013-01-20 23:11:00,
2013-01-20 15:16:00,63.1,29.5,29.90,North,-999,-999.0,-999.0,36,0.00,,,0.00,meteohub,2013-01-20 23:16:00,
2013-01-20 15:21:00,63.0,28.4,29.90,North,-999,-999.0,-999.0,36,0.00,,,0.00,meteohub,2013-01-20 23:21:00,
2013-01-20 15:26:00,63.0,29.3,29.90,North,-999,-999.0,-999.0,36,0.00,,,0.00,meteohub,2013-01-20 23:26:00,
2013-01-20 15:32:00,62.8,28.2,29.90,North,-999,-999.0,-999.0,36,0.00,,,0.00,meteohub,2013-01-20 23:32:00,
2013-01-20 15:37:00,62.8,28.2,29.90,North,-999,-999.0,-999.0,35,0.00,,,0.00,meteohub,2013-01-20 23:37:00,
2013-01-20 15:42:00,62.6,28.2,29.93,North,-999,-999.0,-999.0,35,0.00,,,0.00,meteohub,2013-01-20 23:42:00,
2013-01-20 15:47:00,62.4,28.9,29.93,North,-999,-999.0,-999.0,35,0.00,,,0.00,meteohub,2013-01-20 23:47:00,
2013-01-20 15:52:00,62.2,28.8,29.93,North,-999,-999.0,-999.0,36,0.00,,,0.00,meteohub,2013-01-20 23:52:00,
2013-01-20 15:57:00,62.1,28.6,29.93,North,-999,-999.0,-999.0,36,0.00,,,0.00,meteohub,2013-01-20 23:57:00,
2013-01-20 16:02:00,61.9,28.4,29.93,North,-999,-999.0,-999.0,36,0.00,,,0.00,meteohub,2013-01-21 00:02:00,
2013-01-20 16:07:00,61.7,28.2,29.93,North,-999,-999.0,-999.0,36,0.00,,,0.00,meteohub,2013-01-21 00:07:00,
2013-01-20 16:12:00,61.5,28.0,29.90,North,-999,-999.0,-999.0,36,0.00,,,0.00,meteohub,2013-01-21 00:12:00,
2013-01-20 16:18:00,61.2,27.9,29.90,North,-999,-999.0,-999.0,36,0.00,,,0.00,meteohub,2013-01-21 00:18:00,
2013-01-20 16:23:00,61.0,27.7,29.90,North,-999,-999.0,-999.0,36,0.00,,,0.00,meteohub,2013-01-21 00:23:00,
2013-01-20 16:28:00,60.8,27.5,29.90,North,-999,-999.0,-999.0,36,0.00,,,0.00,meteohub,2013-01-21 00:28:00,
2013-01-20 16:33:00,60.6,28.2,29.90,North,-999,-999.0,-999.0,36,0.00,,,0.00,meteohub,2013-01-21 00:33:00,
2013-01-20 16:38:00,60.3,27.9,29.90,North,-999,-999.0,-999.0,36,0.00,,,0.00,meteohub,2013-01-21 00:38:00,
2013-01-20 16:44:00,59.9,27.5,29.90,North,-999,-999.0,-999.0,36,0.00,,,0.00,meteohub,2013-01-21 00:44:00,
2013-01-20 16:49:00,59.4,27.9,29.90,North,-999,-999.0,-999.0,36,0.00,,,0.00,meteohub,2013-01-21 00:49:00,
2013-01-20 16:54:00,58.6,29.7,29.90,North,-999,-999.0,-999.0,36,0.00,,,0.00,meteohub,2013-01-21 00:54:00,
2013-01-20 16:59:00,57.9,30.4,29.90,North,-999,-999.0,-999.0,36,0.00,,,0.00,meteohub,2013-01-21 00:59:00,
2013-01-20 17:04:00,57.4,30.0,29.90,North,-999,-999.0,-999.0,36,0.00,,,0.00,meteohub,2013-01-21 01:04:00,
2013-01-20 17:09:00,56.8,30.2,29.90,North,-999,-999.0,-999.0,36,0.00,,,0.00,meteohub,2013-01-21 01:09:00,
2013-01-20 17:15:00,56.7,30.7,29.90,North,-999,-999.0,-999.0,36,0.00,,,0.00,meteohub,2013-01-21 01:15:00,
2013-01-20 17:20:00,56.1,30.9,29.90,North,-999,-999.0,-999.0,36,0.00,,,0.00,meteohub,2013-01-21 01:20:00,
2013-01-20 17:25:00,55.8,30.6,29.90,North,-999,-999.0,-999.0,36,0.00,,,0.00,meteohub,2013-01-21 01:25:00,
2013-01-20 17:30:00,55.2,30.7,29.90,North,-999,-999.0,-999.0,36,0.00,,,0.00,meteohub,2013-01-21 01:30:00,
2013-01-20 17:36:00,54.5,30.7,29.90,North,-999,-999.0,-999.0,36,0.00,,,0.00,meteohub,2013-01-21 01:36:00,
2013-01-20 17:41:00,54.1,30.9,29.90,North,-999,-999.0,-999.0,36,0.00,,,0.00,meteohub,2013-01-21 01:41:00,
2013-01-20 17:46:00,53.6,30.4,29.90,North,-999,-999.0,-999.0,36,0.00,,,0.00,meteohub,2013-01-21 01:46:00,
2013-01-20 17:52:00,53.2,30.7,29.90,North,-999,-999.0,-999.0,35,0.00,,,0.00,meteohub,2013-01-21 01:52:00,
2013-01-20 17:57:00,52.9,30.9,29.90,North,-999,-999.0,-999.0,35,0.00,,,0.00,meteohub,2013-01-21 01:57:00,
2013-01-20 18:02:00,52.5,31.3,29.90,North,-999,-999.0,-999.0,36,0.00,,,0.00,meteohub,2013-01-21 02:02:00,
2013-01-20 18:08:00,52.0,30.7,29.90,North,-999,-999.0,-999.0,36,0.00,,,0.00,meteohub,2013-01-21 02:08:00,
2013-01-20 18:13:00,51.8,31.1,29.93,North,-999,-999.0,-999.0,36,0.00,,,0.00,meteohub,2013-01-21 02:13:00,
2013-01-20 18:18:00,51.4,31.3,29.93,North,-999,-999.0,-999.0,36,0.00,,,0.00,meteohub,2013-01-21 02:18:00,
2013-01-20 18:23:00,51.1,31.1,29.93,North,-999,-999.0,-999.0,36,0.00,,,0.00,meteohub,2013-01-21 02:23:00,
2013-01-20 18:28:00,50.7,30.7,29.93,North,-999,-999.0,-999.0,36,0.00,,,0.00,meteohub,2013-01-21 02:28:00,
2013-01-20 18:33:00,50.5,30.6,29.93,North,-999,-999.0,-999.0,36,0.00,,,0.00,meteohub,2013-01-21 02:33:00,
2013-01-20 18:38:00,50.4,30.4,29.93,North,-999,-999.0,-999.0,36,0.00,,,0.00,meteohub,2013-01-21 02:38:00,
2013-01-20 18:44:00,50.0,30.0,29.93,North,-999,-999.0,-999.0,36,0.00,,,0.00,meteohub,2013-01-21 02:44:00,
2013-01-20 18:49:00,49.6,30.2,29.93,North,-999,-999.0,-999.0,36,0.00,,,0.00,meteohub,2013-01-21 02:49:00,
2013-01-20 18:54:00,49.5,30.0,29.93,North,-999,-999.0,-999.0,36,0.00,,,0.00,meteohub,2013-01-21 02:54:00,
2013-01-20 19:00:00,49.3,29.8,29.93,North,-999,-999.0,-999.0,36,0.00,,,0.00,meteohub,2013-01-21 03:00:00,
2013-01-20 19:05:00,49.1,29.7,29.93,North,-999,-999.0,-999.0,36,0.00,,,0.00,meteohub,2013-01-21 03:05:00,
2013-01-20 19:10:00,48.7,29.5,29.93,North,-999,-999.0,-999.0,36,0.00,,,0.00,meteohub,2013-01-21 03:10:00,
2013-01-20 19:16:00,48.7,28.9,29.93,North,-999,-999.0,-999.0,36,0.00,,,0.00,meteohub,2013-01-21 03:16:00,
2013-01-20 19:21:00,48.4,28.6,29.93,North,-999,-999.0,-999.0,37,0.00,,,0.00,meteohub,2013-01-21 03:21:00,
2013-01-20 19:26:00,48.2,28.4,29.93,North,-999,-999.0,-999.0,37,0.00,,,0.00,meteohub,2013-01-21 03:26:00,
2013-01-20 19:31:00,48.0,28.2,29.93,North,-999,-999.0,-999.0,37,0.00,,,0.00,meteohub,2013-01-21 03:31:00,
2013-01-20 19:36:00,47.8,28.0,29.93,North,-999,-999.0,-999.0,37,0.00,,,0.00,meteohub,2013-01-21 03:36:00,
2013-01-20 19:42:00,47.7,27.3,29.93,North,-999,-999.0,-999.0,36,0.00,,,0.00,meteohub,2013-01-21 03:42:00,
2013-01-20 19:47:00,47.7,27.3,29.93,North,-999,-999.0,-999.0,36,0.00,,,0.00,meteohub,2013-01-21 03:47:00,
2013-01-20 19:52:00,47.5,27.1,29.93,North,-999,-999.0,-999.0,36,0.00,,,0.00,meteohub,2013-01-21 03:52:00,
2013-01-20 19:57:00,47.3,26.4,29.93,North,-999,-999.0,-999.0,36,0.00,,,0.00,meteohub,2013-01-21 03:57:00,
2013-01-20 20:03:00,47.1,26.8,29.93,North,-999,-999.0,-999.0,36,0.00,,,0.00,meteohub,2013-01-21 04:03:00,
2013-01-20 20:08:00,47.1,26.2,29.93,North,-999,-999.0,-999.0,36,0.00,,,0.00,meteohub,2013-01-21 04:08:00,
2013-01-20 20:13:00,46.9,26.8,29.93,North,-999,-999.0,-999.0,36,0.00,,,0.00,meteohub,2013-01-21 04:13:00,
2013-01-20 20:18:00,46.8,26.6,29.93,North,-999,-999.0,-999.0,36,0.00,,,0.00,meteohub,2013-01-21 04:18:00,
2013-01-20 20:23:00,46.6,26.4,29.93,North,-999,-999.0,-999.0,36,0.00,,,0.00,meteohub,2013-01-21 04:23:00,
2013-01-20 20:28:00,46.4,26.2,29.93,North,-999,-999.0,-999.0,36,0.00,,,0.00,meteohub,2013-01-21 04:28:00,
2013-01-20 20:34:00,46.4,26.2,29.93,North,-999,-999.0,-999.0,36,0.00,,,0.00,meteohub,2013-01-21 04:34:00,
2013-01-20 20:39:00,46.2,26.6,29.93,North,-999,-999.0,-999.0,36,0.00,,,0.00,meteohub,2013-01-21 04:39:00,
2013-01-20 20:45:00,46.0,26.4,29.93,North,-999,-999.0,-999.0,36,0.00,,,0.00,meteohub,2013-01-21 04:45:00,
2013-01-20 20:50:00,45.9,26.8,29.93,North,-999,-999.0,-999.0,36,0.00,,,0.00,meteohub,2013-01-21 04:50:00,
2013-01-20 20:55:00,45.7,26.6,29.93,North,-999,-999.0,-999.0,36,0.00,,,0.00,meteohub,2013-01-21 04:55:00,
2013-01-20 21:00:00,45.5,26.4,29.93,North,-999,-999.0,-999.0,36,0.00,,,0.00,meteohub,2013-01-21 05:00:00,
2013-01-20 21:01:00,45.5,26.4,29.93,North,-999,-999.0,-999.0,36,0.00,,,0.00,meteohub,2013-01-21 05:01:00,
2013-01-20 21:04:00,45.5,26.4,29.93,North,-999,-999.0,-999.0,36,0.00,,,0.00,meteohub,2013-01-21 05:04:00,
2013-01-20 21:10:00,45.5,26.4,29.93,North,-999,-999.0,-999.0,36,0.00,,,0.00,meteohub,2013-01-21 05:10:00,
2013-01-20 21:15:00,45.3,26.2,29.93,North,-999,-999.0,-999.0,36,0.00,,,0.00,meteohub,2013-01-21 05:15:00,
2013-01-20 21:20:00,45.1,26.1,29.93,North,-999,-999.0,-999.0,36,0.00,,,0.00,meteohub,2013-01-21 05:20:00,
2013-01-20 21:25:00,45.1,26.1,29.93,North,-999,-999.0,-999.0,36,0.00,,,0.00,meteohub,2013-01-21 05:25:00,
2013-01-20 21:31:00,45.0,25.9,29.93,North,-999,-999.0,-999.0,36,0.00,,,0.00,meteohub,2013-01-21 05:31:00,
2013-01-20 21:36:00,44.8,25.7,29.93,North,-999,-999.0,-999.0,36,0.00,,,0.00,meteohub,2013-01-21 05:36:00,
2013-01-20 21:41:00,44.8,25.7,29.96,North,-999,-999.0,-999.0,36,0.00,,,0.00,meteohub,2013-01-21 05:41:00,
2013-01-20 21:46:00,44.6,25.7,29.96,North,-999,-999.0,-999.0,36,0.00,,,0.00,meteohub,2013-01-21 05:46:00,
2013-01-20 21:52:00,44.4,25.9,29.96,North,-999,-999.0,-999.0,36,0.00,,,0.00,meteohub,2013-01-21 05:52:00,
2013-01-20 21:57:00,44.4,25.9,29.96,North,-999,-999.0,-999.0,36,0.00,,,0.00,meteohub,2013-01-21 05:57:00,
2013-01-20 22:02:00,44.4,25.9,29.96,North,-999,-999.0,-999.0,36,0.00,,,0.00,meteohub,2013-01-21 06:02:00,
2013-01-20 22:07:00,44.4,25.9,29.96,North,-999,-999.0,-999.0,36,0.00,,,0.00,meteohub,2013-01-21 06:07:00,
2013-01-20 22:12:00,44.2,26.2,29.96,North,-999,-999.0,-999.0,36,0.00,,,0.00,meteohub,2013-01-21 06:12:00,
2013-01-20 22:17:00,44.1,26.1,29.96,North,-999,-999.0,-999.0,36,0.00,,,0.00,meteohub,2013-01-21 06:17:00,
2013-01-20 22:25:00,44.1,26.1,29.96,North,-999,-999.0,-999.0,36,0.00,,,0.00,meteohub,2013-01-21 06:25:00,
2013-01-20 22:30:00,44.1,25.7,29.96,North,-999,-999.0,-999.0,36,0.00,,,0.00,meteohub,2013-01-21 06:30:00,
2013-01-20 22:36:00,44.1,25.7,29.96,North,-999,-999.0,-999.0,36,0.00,,,0.00,meteohub,2013-01-21 06:36:00,
2013-01-20 22:41:00,44.1,25.7,29.96,North,-999,-999.0,-999.0,36,0.00,,,0.00,meteohub,2013-01-21 06:41:00,
2013-01-20 22:47:00,43.9,25.9,29.96,North,-999,-999.0,-999.0,36,0.00,,,0.00,meteohub,2013-01-21 06:47:00,
2013-01-20 22:52:00,43.7,25.7,29.96,North,-999,-999.0,-999.0,36,0.00,,,0.00,meteohub,2013-01-21 06:52:00,
2013-01-20 22:57:00,43.7,25.7,29.96,North,-999,-999.0,-999.0,36,0.00,,,0.00,meteohub,2013-01-21 06:57:00,
2013-01-20 23:02:00,43.7,25.7,29.96,North,-999,-999.0,-999.0,36,0.00,,,0.00,meteohub,2013-01-21 07:02:00,
2013-01-20 23:07:00,43.5,25.7,29.96,North,-999,-999.0,-999.0,36,0.00,,,0.00,meteohub,2013-01-21 07:07:00,
2013-01-20 23:12:00,43.3,25.5,29.93,North,-999,-999.0,-999.0,36,0.00,,,0.00,meteohub,2013-01-21 07:12:00,
2013-01-20 23:18:00,43.2,25.7,29.93,North,-999,-999.0,-999.0,36,0.00,,,0.00,meteohub,2013-01-21 07:18:00,
2013-01-20 23:23:00,43.0,25.7,29.93,North,-999,-999.0,-999.0,36,0.00,,,0.00,meteohub,2013-01-21 07:23:00,
2013-01-20 23:28:00,43.0,25.7,29.93,North,-999,-999.0,-999.0,36,0.00,,,0.00,meteohub,2013-01-21 07:28:00,
2013-01-20 23:34:00,42.8,25.5,29.93,North,-999,-999.0,-999.0,36,0.00,,,0.00,meteohub,2013-01-21 07:34:00,
2013-01-20 23:39:00,42.4,25.5,29.93,North,-999,-999.0,-999.0,36,0.00,,,0.00,meteohub,2013-01-21 07:39:00,
2013-01-20 23:44:00,42.3,25.9,29.93,North,-999,-999.0,-999.0,36,0.00,,,0.00,meteohub,2013-01-21 07:44:00,
2013-01-20 23:49:00,42.3,25.9,29.93,North,-999,-999.0,-999.0,35,0.00,,,0.00,meteohub,2013-01-21 07:49:00,
2013-01-20 23:54:00,42.3,25.9,29.93,North,-999,-999.0,-999.0,35,0.00,,,0.00,meteohub,2013-01-21 07:54:00,